sat.trackr.live / text

‹ back to catalog

STARLINK-4261

NORAD 52868 · 2022-062AQ

PAYLOAD ACTIVE UNKNOWN

§ Identity

Operator
Country
US
Launch date
2022-06-17
Launch site
AFETR
Launch vehicle
Mass (kg)
RCS (m²)

Purposes: comms

External: N2YO · Heavens-Above · Gunter

§ Orbital elements

Epoch: 2026-09-19T12:58:09.530112Z

Period
93.79 min
Inclination
53.1599°
Eccentricity
0.0001338
Mean motion
15.35388071 rev/d
Perigee alt
458.9 km
Apogee alt
460.7 km
Semi-major
6,837.9 km
B*
-1.6783e-5
RAAN
222.7109°
Arg perigee
94.5618°
Mean anomaly
265.5538°
Rev number
23,534

§ Raw data

STARLINK-42611 52868U 22062AQ  26262.54038808 -.00000966  00000+0 -16783-4 0  99962 52868  53.1599 222.7109 0001338  94.5618 265.5538 15.35388071235346

JSON: /api/v1/satellites/52868 · /tle

For live sub-satellite position, see the globe view (requires WebGL).

§ Visibility from observer

Set your observer location to see the next 7 days of passes ≥ 10°. The values pass through the URL so the page stays shareable.

No JS? Fill the form by hand. The geolocation button needs JavaScript.